Location: Brahman Valley
(40.6513°N, 111.8855°W)
Time: 08:50:14
(UTC+00:00)

Tiros 1 despin weight - Pass Details

Date: 20 May 2021
Orbit: 594 x 641 km, 48.2° (Epoch: 22 June)

Event Time Altitude Azimuth Distance (km) Brightness Sun altitude
Rises 01:20:51 0° 243° (WSW) 2,889 ? 13.5°
Reaches altitude 10° 01:23:09 10° 244° (WSW) 1,992 ? 13.0°
Maximum altitude 01:27:45 80° 331° (NNW) 645 ? 12.2°
Drops below altitude 10° 01:32:25 10° 59° (ENE) 2,024 ? 11.4°
Sets 01:34:46 0° 61° (ENE) 2,939 ? 10.9°
